Location: Asheville, NC
(35.6000°N, 82.5500°W)
Time: 16:21:56
(UTC-05:00)

N. Korean satellite - Pass Details

Date: 09 February 2018
Orbit: 459 x 514 km, 97.2° (Epoch: 21 February)

Event Time Altitude Azimuth Distance (km) Brightness Sun altitude
Rises 06:42:07 0° 21° (NNE) 2,527 10.3 -8.9°
Reaches altitude 10° 06:44:17 10° 30° (NNE) 1,654 9.5 -8.5°
Maximum altitude 06:47:35 36° 98° (E) 780 8.4 -7.8°
Drops below altitude 10° 06:50:56 10° 167° (SSE) 1,672 9.7 -7.1°
Sets 06:53:07 0° 176° (S) 2,559 10.5 -6.7°
